Regional Weather Roundup
Issued by NWS

Home | Current Version | Previous Version | Text Only | Print | Product List | Glossary On
Versions: 1 2 3 4 5 6 7 8 9 10 11 12 13 14 15 16 17 18 19 20 21 22 23 24 25 26 27 28 29 30 31 32 33 34 35 36 37 38 39 40 41 42 43 44 45 46 47 48 49 50
473
ASUS43 KLSX 152207
RWRMO

WEATHER SUMMARY FOR MISSOURI
NATIONAL WEATHER SERVICE SPRINGFIELD MO
400 PM CST FRI DEC 15 2017

NOTE: "FAIR" INDICATES FEW OR NO CLOUDS BELOW 12,000 FEET WITH NO
       SIGNIFICANT WEATHER AND/OR OBSTRUCTIONS TO VISIBILITY.
       CURRENT SKY AND/OR WEATHER CONDITIONS ARE NOT AVAILABLE FOR
       CHILLICOTHE AND FARMINGTON.

MOZ001>031-035>038-043-044-053-054-152300-
...NORTHERN AND WESTERN MISSOURI...

CITY           SKY/WX    TMP DP  RH WIND       PRES   REMARKS
KANSAS CTY INT PTCLDY    45  22  40 SW12      30.00F
KANSAS C DTWN  CLEAR     47  22  37 SW17      30.01F
LEE`S SUMMIT   CLEAR     45  22  40 SW14      30.03F
ST JOSEPH      CLEAR     47  23  38 SW15G23   29.97F
CHILLICOTHE      N/A     45  21  38 SW12G18   30.00F
KIRKSVILLE     CLEAR     42  24  49 SW13G23   29.97F

$$
MOZ066>068-077>081-088>096-101>105-152300-
...SOUTHWEST MISSOURI...

CITY           SKY/WX    TMP DP  RH WIND       PRES   REMARKS
SPRINGFIELD    CLEAR     44  25  47 W13G23    30.09S
JOPLIN         CLEAR     46  25  43 W12G17    30.12F
BRANSON        CLEAR     45  25  45 W13       30.11F

$$
MOZ032>034-039>042-045>050-055>058-069>072-152300-
...CENTRAL MISSOURI...

CITY           SKY/WX    TMP DP  RH WIND       PRES   REMARKS
COLUMBIA       CLEAR     42  24  49 SW17      30.04F
JEFFERSON CITY CLEAR     43  25  49 W9        30.07S
ROLLA          MOCLDY    41  25  53 W14       30.07F
SEDALIA        CLEAR     44  26  49 SW12      30.06F
WHITEMAN AFB   PTCLDY    44  22  43 W13       30.00F
WARRENSBURG    CLEAR     43  23  45 SW10G18   30.05S
OSAGE BEACH    PTCLDY    43  26  51 W10       30.08F

$$
MOZ051-052-059>065-152300-
...EAST CENTRAL MISSOURI...

CITY           SKY/WX    TMP DP  RH WIND       PRES   REMARKS
ST LOUIS INTL  PTCLDY    43  20  39 W9        30.06S
SPIRIT OF STL  CLEAR     43  20  39 W12       30.05F
ST CHARLES     PTCLDY    44  19  36 W10       30.05S

$$
MOZ072>076-082>087-097>100-106>115-152300-
...SOUTH CENTRAL AND SOUTHEAST MISSOURI...

CITY           SKY/WX    TMP DP  RH WIND       PRES   REMARKS
CAPE GIRARDEAU CLOUDY    45  27  49 SW13      30.09F
FARMINGTON     CLEAR     43  25  49 W9        30.08R
POPLAR BLUFF   PTCLDY    49  27  42 SW10      30.09F
WEST PLAINS    CLEAR     46  26  45 W10       30.10S

$$



USA.gov is the U.S. government's official web portal to all federal, state and local government web resources and services.